This is the latest recevied weather packets stored in our database for station/object N1SU-13. If no packets are shown the sender has not sent any weather packets the latest 10 day(s).
| Time | Temp. | Humidity | Pressure | Rain* | Wind** | Luminosity | Snow |
|---|---|---|---|---|---|---|---|
| 1777626050 | 12.22° C | 78% | 1014.9 hPa | - | - | - | - |
| 1777625482 | 12.22° C | 78% | 1015.1 hPa | - | - | - | - |
| 1777624887 | 12.22° C | 78% | 1015.1 hPa | - | - | - | - |
| 1777624307 | 12.22° C | 78% | 1015.2 hPa | - | - | - | - |
| 1777623701 | 12.78° C | 78% | - | - | - | - | - |
| 1777623100 | 12.78° C | 78% | 1015.3 hPa | - | - | - | - |
| 1777622462 | 12.78° C | 77% | 1015.4 hPa | - | - | - | - |
| 1777621835 | 12.78° C | 76% | 1015.5 hPa | - | - | - | - |
| 1777621211 | 13.33° C | 75% | 1015.6 hPa | - | - | - | - |
| 1777620571 | 13.33° C | 75% | 1015.5 hPa | - | - | - | - |
| 1777619903 | 13.89° C | 74% | 1015.4 hPa | - | - | - | - |
| 1777619220 | 13.89° C | 73% | 1015.6 hPa | - | - | - | - |
| 1777618543 | 14.44° C | 72% | 1015.7 hPa | - | - | - | - |
| 1777617957 | 14.44° C | 71% | 1015.6 hPa | - | - | - | - |
| 1777617378 | 14.44° C | 70% | 1015.6 hPa | - | - | - | - |
| 1777616800 | 14.44° C | 69% | 1015.5 hPa | - | - | - | - |
| 1777616734 | 14.44° C | 70% | 1015.5 hPa | - | - | - | - |
| 1777616048 | 15° C | 68% | 1015.4 hPa | - | - | - | - |
| 1777615451 | 15° C | 65% | 1015.5 hPa | - | - | - | - |
| 1777614796 | 15° C | 62% | 1015.4 hPa | - | - | - | - |
| 1777614145 | 15.56° C | 60% | 1015.3 hPa | - | - | - | - |
| 1777613514 | 15.56° C | 59% | 1015.4 hPa | - | - | - | - |
| 1777612946 | 16.11° C | 57% | 1015.4 hPa | - | - | - | - |
| 1777612272 | 16.11° C | 57% | 1015.3 hPa | - | - | - | - |
| 1777611681 | 16.67° C | 55% | 1015.1 hPa | - | - | - | - |
* Rain since midnight (hover to see other rain measurements)
** Current wind speed in m/s (hover to see current wind gust speed)